Change the Weather History Date:

Tuesday, April 8, 2014

  Actual Average Record
Temperature  
Mean Temperature 53 °F -  
Max Temperature 61 °F 67 °F 87 °F (2015)
Min Temperature 45 °F 48 °F 30 °F (2007)
Degree Days  
Heating Degree Days 12    
Growing Degree Days 3 (Base 50)    
Moisture  
Dew Point 43 °F    
Average Humidity 70    
Maximum Humidity 95    
Minimum Humidity 41    
Precipitation  
Precipitation 0.00 in - - ()
Sea Level Pressure  
Sea Level Pressure 29.77 in    
Wind  
Wind Speed 12 mph (WNW)    
Max Wind Speed 18 mph    
Max Gust Speed 28 mph    
Visibility 10 miles    
Events      
Averages and records for this station are not official NWS values.
T = Trace of Precipitation, MM = Missing Value Source: NWS Daily Summary

Daily Weather History Graph

Daily Weather History Graph

Search for Another Location

Airport or City:

Trip Planner

Search our weather history database for the weather conditions in past years. The results will help you decide how hot, cold, wet, or windy it might be!

Date:

Astronomy

Apr. 08, 2014 Rise Set
Actual Time 7:16 AM EDT 8:04 PM EDT
Civil Twilight 6:50 AM EDT 8:29 PM EDT
Nautical Twilight 6:20 AM EDT 8:59 PM EDT
Astronomical Twilight 5:50 AM EDT 9:30 PM EDT
Moon 2:12 PM EDT (4/8) 3:12 AM EDT (4/8)
Length of Visible Light 13h 38m
Length of Day
12h 47m
Waxing Gibbous, 62% of the Moon is Illuminated
Apr 8
Waxing Gibbous
Apr 15
Full
Apr 22
Last Quarter
Apr 29
New
May 6
First Quarter

Hourly Weather History & Observations

Time (EDT) Temp. Windchill Dew Point Humidity Pressure Visibility Wind Dir Wind Speed Gust Speed Precip Events Conditions
12:13 AM 51.8 °F - 48.2 °F 88% 29.80 in 10.0 mi WNW 11.5 mph - N/A   Mostly Cloudy
12:33 AM 51.8 °F - 46.4 °F 82% 29.79 in 10.0 mi WNW 10.4 mph - N/A   Scattered Clouds
12:58 AM 51.3 °F - 46.9 °F 85% 29.79 in 10.0 mi WNW 11.5 mph - N/A   Scattered Clouds
1:03 AM 51.8 °F - 46.4 °F 82% 29.79 in 10.0 mi West 9.2 mph - N/A   Mostly Cloudy
1:58 AM 51.8 °F - 47.3 °F 85% 29.78 in 10.0 mi West 11.5 mph - N/A   Overcast
2:58 AM 50.0 °F - 45.7 °F 85% 29.77 in 10.0 mi West 13.8 mph - N/A   Partly Cloudy
3:58 AM 48.2 °F - 43.3 °F 83% 29.76 in 10.0 mi WNW 11.5 mph - N/A   Clear
4:58 AM 46.4 °F 42.4 °F 42.8 °F 87% 29.75 in 10.0 mi WNW 8.1 mph - N/A   Partly Cloudy
5:58 AM 45.3 °F 41.1 °F 43.2 °F 92% 29.75 in 10.0 mi West 8.1 mph - N/A   Mostly Cloudy
7:58 AM 45.1 °F 40.8 °F 43.7 °F 95% 29.76 in 10.0 mi WNW 8.1 mph - N/A   Mostly Cloudy
8:35 AM 46.4 °F 41.5 °F 44.6 °F 93% 29.77 in 10.0 mi West 10.4 mph - N/A   Overcast
8:55 AM 46.6 °F - 44.8 °F 93% 29.78 in 10.0 mi WNW 10.4 mph - N/A   Overcast
9:50 AM 50.0 °F - 44.6 °F 82% 29.78 in 10.0 mi NW 16.1 mph - N/A   Overcast
9:55 AM 50.4 °F - 43.7 °F 78% 29.78 in 10.0 mi NW 13.8 mph - N/A   Overcast
10:40 AM 51.8 °F - 42.8 °F 71% 29.78 in 10.0 mi NW 13.8 mph 21.9 mph N/A   Mostly Cloudy
10:51 AM 53.6 °F - 42.8 °F 67% 29.79 in 10.0 mi WNW 15.0 mph 26.5 mph N/A   Mostly Cloudy
10:55 AM 53.2 °F - 42.6 °F 67% 29.78 in 10.0 mi NW 18.4 mph 26.5 mph N/A   Mostly Cloudy
11:55 AM 56.3 °F - 40.6 °F 56% 29.79 in 10.0 mi WNW 16.1 mph 27.6 mph N/A   Partly Cloudy
12:55 PM 59.4 °F - 40.5 °F 50% 29.77 in 10.0 mi NW 13.8 mph 24.2 mph N/A   Scattered Clouds
1:55 PM 61.3 °F - 38.3 °F 43% 29.75 in 10.0 mi NW 16.1 mph 26.5 mph N/A   Scattered Clouds
2:55 PM 61.9 °F - 37.6 °F 41% 29.73 in 10.0 mi NNW 11.5 mph - N/A   Scattered Clouds
3:55 PM 60.6 °F - 37.9 °F 43% 29.72 in 10.0 mi WNW 17.3 mph 23.0 mph N/A   Mostly Cloudy
4:55 PM 60.6 °F - 37.9 °F 43% 29.72 in 10.0 mi West 12.7 mph 18.4 mph N/A   Mostly Cloudy
5:55 PM 60.6 °F - 37.9 °F 43% 29.73 in 10.0 mi NNW 12.7 mph - N/A   Mostly Cloudy
6:55 PM 59.4 °F - 39.2 °F 47% 29.74 in 10.0 mi West 9.2 mph - N/A   Mostly Cloudy
7:55 PM 57.6 °F - 39.9 °F 52% 29.76 in 10.0 mi WNW 6.9 mph - N/A   Mostly Cloudy
8:55 PM 54.9 °F - 40.1 °F 58% 29.78 in 10.0 mi WNW 5.8 mph - N/A   Mostly Cloudy
9:55 PM 52.2 °F - 41.4 °F 67% 29.80 in 10.0 mi West 5.8 mph - N/A   Mostly Cloudy
10:55 PM 52.7 °F - 41.7 °F 66% 29.81 in 10.0 mi West 9.2 mph - N/A   Mostly Cloudy